This is the latest recevied weather packets stored in our database for station/object K2CCS. If no packets are shown the sender has not sent any weather packets the latest 10 day(s).
| Time | Temp. | Humidity | Pressure | Rain* | Wind** | Luminosity | Snow |
|---|---|---|---|---|---|---|---|
| 1778019970 | 20° C | 65% | 1010 hPa | 0 mm | - | 17 W/m² | - |
| 1778019666 | 20.56° C | 63% | 1009.9 hPa | 0 mm | - | 25 W/m² | - |
| 1778019363 | 20.56° C | 61% | 1009.6 hPa | 0 mm | - | 24 W/m² | - |
| 1778019059 | 20.56° C | 61% | 1009.1 hPa | 0 mm | - | 23 W/m² | - |
| 1778018757 | 20° C | 63% | 1009.2 hPa | 0 mm | - | 41 W/m² | - |
| 1778018455 | 20.56° C | 61% | 1009 hPa | 0 mm | - | 68 W/m² | - |
| 1778018152 | 20.56° C | 60% | 1009.1 hPa | 0 mm | - | 74 W/m² | - |
| 1778017850 | 20.56° C | 61% | 1009 hPa | 0 mm | - | 88 W/m² | - |
| 1778017548 | 20° C | 61% | 1008.6 hPa | 0 mm | - | 69 W/m² | - |
| 1778017244 | 20° C | 63% | 1008.9 hPa | 0 mm | - | 27 W/m² | - |
| 1778016943 | 20° C | 66% | 1009 hPa | 0 mm | - | 43 W/m² | - |
| 1778016638 | 19.44° C | 67% | 1008.6 hPa | 0 mm | - | 78 W/m² | - |
| 1778016335 | 20° C | 66% | 1009 hPa | 0 mm | - | 67 W/m² | - |
| 1778016032 | 20° C | 64% | 1009.3 hPa | 0 mm | - | 52 W/m² | - |
| 1778015729 | 20.56° C | 65% | 1009.4 hPa | 0 mm | - | 49 W/m² | - |
| 1778015426 | 20.56° C | 65% | 1009.6 hPa | 0 mm | - | 31 W/m² | - |
| 1778015123 | 20.56° C | 65% | 1009.4 hPa | 0 mm | - | 22 W/m² | - |
| 1778014820 | 21.11° C | 64% | 1009.5 hPa | 0 mm | - | 36 W/m² | - |
| 1778014518 | 21.67° C | 63% | 1009.3 hPa | 0 mm | - | 51 W/m² | - |
| 1778014215 | 21.67° C | 62% | 1009.3 hPa | 0 mm | - | 72 W/m² | - |
| 1778013912 | 21.67° C | 63% | 1009.1 hPa | 0 mm | - | 121 W/m² | - |
| 1778013609 | 21.67° C | 63% | 1008.5 hPa | 0 mm | - | 104 W/m² | - |
| 1778013306 | 22.78° C | 61% | 1008.3 hPa | 0 mm | - | 181 W/m² | - |
| 1778013003 | 22.78° C | 60% | 1008.1 hPa | 0 mm | - | 429 W/m² | - |
| 1778012699 | 22.22° C | 61% | 1008.2 hPa | 0 mm | - | 404 W/m² | - |
* Rain latest hour (hover to see other rain measurements)
** Current wind speed in m/s (hover to see current wind gust speed)